Time,TemperatureF,DewpointF,PressureIn,WindDirection,WindDirectionDegrees,WindSpeedMPH,WindSpeedGustMPH,Humidity,HourlyPrecipIn,Conditions,Clouds,dailyrainin,SoftwareType,DateUTC
2013-03-18 00:00:00,33.6,14.6,29.85,SW,230,0.0,10.5,45,0.00,,---,0.00,VWS V13.00,2013-03-18 08:00:00,
2013-03-18 00:05:00,33.6,14.6,29.85,WNW,299,0.0,11.0,45,0.00,,---,0.00,VWS V13.00,2013-03-18 08:05:00,
2013-03-18 00:10:00,33.6,14.6,29.85,West,259,0.0,11.0,45,0.00,,---,0.00,VWS V13.00,2013-03-18 08:10:00,
2013-03-18 00:15:00,33.6,14.6,29.85,SSE,150,0.0,11.0,45,0.00,,---,0.00,VWS V13.00,2013-03-18 08:15:00,
2013-03-18 00:20:00,33.3,14.7,29.85,SW,235,0.0,11.0,46,0.00,,---,0.00,VWS V13.00,2013-03-18 08:20:00,
2013-03-18 00:25:00,33.3,15.2,29.85,SW,216,0.0,0.0,47,0.00,,---,0.00,VWS V13.00,2013-03-18 08:25:00,
2013-03-18 00:30:00,33.3,15.2,29.85,WNW,299,0.0,0.0,47,0.00,,---,0.00,VWS V13.00,2013-03-18 08:30:00,
2013-03-18 00:35:00,33.3,15.2,29.85,NW,313,0.0,0.0,47,0.00,,---,0.00,VWS V13.00,2013-03-18 08:35:00,
2013-03-18 00:40:00,33.3,15.2,29.85,NNW,342,0.0,0.0,47,0.00,,---,0.00,VWS V13.00,2013-03-18 08:40:00,
2013-03-18 00:45:00,33.3,15.7,29.85,North,0,0.0,0.0,48,0.00,,---,0.00,VWS V13.00,2013-03-18 08:45:00,
2013-03-18 00:50:00,33.1,15.5,29.85,WSW,251,0.0,0.0,48,0.00,,---,0.00,VWS V13.00,2013-03-18 08:50:00,
2013-03-18 00:55:00,33.1,15.5,29.85,North,3,0.0,13.2,48,0.00,,---,0.00,VWS V13.00,2013-03-18 08:55:00,
2013-03-18 01:00:00,33.1,15.5,29.85,West,271,0.0,13.2,48,0.00,,---,0.00,VWS V13.00,2013-03-18 09:00:00,
2013-03-18 01:05:00,33.1,16.0,29.85,WSW,254,0.0,9.6,49,0.00,,---,0.00,VWS V13.00,2013-03-18 09:05:00,
2013-03-18 01:10:00,33.1,16.0,29.85,NW,310,0.0,9.6,49,0.00,,---,0.00,VWS V13.00,2013-03-18 09:10:00,
2013-03-18 01:15:00,33.1,16.0,29.85,WNW,297,0.0,9.6,49,0.00,,---,0.00,VWS V13.00,2013-03-18 09:15:00,
2013-03-18 01:20:00,33.1,16.0,29.85,WNW,289,0.0,9.6,49,0.00,,---,0.00,VWS V13.00,2013-03-18 09:20:00,
2013-03-18 01:25:00,33.1,16.5,29.85,WNW,282,0.0,0.0,50,0.00,,---,0.00,VWS V13.00,2013-03-18 09:25:00,
2013-03-18 01:30:00,33.1,16.5,29.83,WSW,257,0.0,0.0,50,0.00,,---,0.00,VWS V13.00,2013-03-18 09:30:00,
2013-03-18 01:35:00,32.9,16.3,29.83,SW,236,0.0,0.0,50,0.00,,---,0.00,VWS V13.00,2013-03-18 09:35:00,
2013-03-18 01:40:00,32.9,16.3,29.83,WNW,294,0.0,0.0,50,0.00,,---,0.00,VWS V13.00,2013-03-18 09:40:00,
2013-03-18 01:45:00,32.9,16.3,29.83,NW,304,0.0,3.1,50,0.00,,---,0.00,VWS V13.00,2013-03-18 09:45:00,
2013-03-18 01:49:00,32.9,16.3,29.83,SSW,204,0.0,3.1,50,0.00,,---,0.00,VWS V13.00,2013-03-18 09:49:00,
2013-03-18 01:54:00,32.9,16.3,29.83,SW,219,0.0,3.1,50,0.00,,---,0.00,VWS V13.00,2013-03-18 09:54:00,
2013-03-18 01:59:00,32.7,16.1,29.83,NNE,19,0.0,3.1,50,0.00,,---,0.00,VWS V13.00,2013-03-18 09:59:00,
2013-03-18 02:04:00,32.7,16.1,29.83,NW,320,3.1,8.7,50,0.00,,---,0.00,VWS V13.00,2013-03-18 10:04:00,
2013-03-18 02:09:00,32.7,16.1,29.83,NE,38,0.0,8.7,50,0.00,,---,0.00,VWS V13.00,2013-03-18 10:09:00,
2013-03-18 02:14:00,32.7,16.1,29.83,North,357,0.0,8.7,50,0.00,,---,0.00,VWS V13.00,2013-03-18 10:14:00,
2013-03-18 02:19:00,32.7,16.1,29.83,NNW,335,3.1,8.7,50,0.00,,---,0.00,VWS V13.00,2013-03-18 10:19:00,
2013-03-18 02:24:00,32.9,16.3,29.83,WNW,300,0.0,3.1,50,0.00,,---,0.00,VWS V13.00,2013-03-18 10:24:00,
2013-03-18 02:29:00,32.9,16.3,29.83,NW,313,0.0,3.1,50,0.00,,---,0.00,VWS V13.00,2013-03-18 10:29:00,
2013-03-18 02:34:00,32.9,16.3,29.83,East,88,0.0,3.1,50,0.00,,---,0.00,VWS V13.00,2013-03-18 10:34:00,
2013-03-18 02:39:00,32.9,15.9,29.83,WNW,297,6.7,10.5,49,0.00,,---,0.00,VWS V13.00,2013-03-18 10:39:00,
2013-03-18 02:44:00,32.9,15.9,29.83,North,353,0.0,6.7,49,0.00,,---,0.00,VWS V13.00,2013-03-18 10:44:00,
2013-03-18 02:49:00,32.9,15.9,29.83,NNW,344,5.8,6.7,49,0.00,,---,0.00,VWS V13.00,2013-03-18 10:49:00,
2013-03-18 02:54:00,32.9,15.9,29.83,NW,312,0.0,6.7,49,0.00,,---,0.00,VWS V13.00,2013-03-18 10:54:00,
2013-03-18 02:59:00,32.9,15.9,29.83,NW,307,0.0,6.7,49,0.00,,---,0.00,VWS V13.00,2013-03-18 10:59:00,
2013-03-18 03:04:00,32.9,14.9,29.80,WNW,301,0.0,0.0,47,0.00,,---,0.00,VWS V13.00,2013-03-18 11:04:00,
2013-03-18 03:09:00,32.7,14.7,29.80,WNW,285,0.0,0.0,47,0.00,,---,0.00,VWS V13.00,2013-03-18 11:09:00,
2013-03-18 03:14:00,32.7,15.2,29.80,NW,306,0.0,0.0,48,0.00,,---,0.00,VWS V13.00,2013-03-18 11:14:00,
2013-03-18 03:19:00,32.7,15.2,29.80,NNW,346,0.0,0.0,48,0.00,,---,0.00,VWS V13.00,2013-03-18 11:19:00,
2013-03-18 03:24:00,32.5,15.0,29.80,NNW,336,0.0,8.3,48,0.00,,---,0.00,VWS V13.00,2013-03-18 11:24:00,
2013-03-18 03:29:00,32.7,14.7,29.80,North,353,0.0,8.3,47,0.00,,---,0.00,VWS V13.00,2013-03-18 11:29:00,
2013-03-18 03:34:00,32.5,15.0,29.80,NNE,21,0.0,8.3,48,0.00,,---,0.00,VWS V13.00,2013-03-18 11:34:00,
2013-03-18 03:39:00,32.5,14.6,29.80,North,3,0.0,8.3,47,0.00,,---,0.00,VWS V13.00,2013-03-18 11:39:00,
2013-03-18 03:44:00,32.5,15.0,29.80,South,190,0.0,0.0,48,0.00,,---,0.00,VWS V13.00,2013-03-18 11:44:00,
2013-03-18 03:49:00,32.5,14.6,29.80,NNW,331,0.0,0.0,47,0.00,,---,0.00,VWS V13.00,2013-03-18 11:49:00,
2013-03-18 03:54:00,32.5,15.0,29.80,North,353,0.0,6.3,48,0.00,,---,0.00,VWS V13.00,2013-03-18 11:54:00,
2013-03-18 03:59:00,32.5,15.0,29.80,North,7,0.0,6.3,48,0.00,,---,0.00,VWS V13.00,2013-03-18 11:59:00,
2013-03-18 04:04:00,32.4,14.9,29.80,NNW,348,0.0,2.7,48,0.00,,---,0.00,VWS V13.00,2013-03-18 12:04:00,
2013-03-18 04:09:00,32.4,14.9,29.80,North,357,0.0,4.9,48,0.00,,---,0.00,VWS V13.00,2013-03-18 12:09:00,
2013-03-18 04:14:00,32.4,14.9,29.80,North,353,0.0,5.8,48,0.00,,---,0.00,VWS V13.00,2013-03-18 12:14:00,
2013-03-18 04:19:00,32.4,14.9,29.80,NNW,330,0.0,5.8,48,0.00,,---,0.00,VWS V13.00,2013-03-18 12:19:00,
2013-03-18 04:24:00,32.4,14.9,29.80,NW,318,0.0,0.0,48,0.00,,---,0.00,VWS V13.00,2013-03-18 12:24:00,
2013-03-18 04:29:00,32.2,14.7,29.80,NW,310,0.0,0.0,48,0.00,,---,0.00,VWS V13.00,2013-03-18 12:29:00,
2013-03-18 04:34:00,32.4,14.4,29.80,NNW,331,0.0,0.0,47,0.00,,---,0.00,VWS V13.00,2013-03-18 12:34:00,
2013-03-18 04:39:00,32.4,14.9,29.80,WNW,303,0.0,0.0,48,0.00,,---,0.00,VWS V13.00,2013-03-18 12:39:00,
2013-03-18 04:44:00,32.2,14.7,29.80,North,353,0.0,0.0,48,0.00,,---,0.00,VWS V13.00,2013-03-18 12:44:00,
2013-03-18 04:49:00,32.4,14.9,29.80,NE,37,0.0,0.0,48,0.00,,---,0.00,VWS V13.00,2013-03-18 12:49:00,
2013-03-18 04:54:00,32.5,15.0,29.80,ENE,59,0.0,0.0,48,0.00,,---,0.00,VWS V13.00,2013-03-18 12:54:00,
2013-03-18 04:59:00,32.4,14.9,29.80,NW,315,0.0,0.0,48,0.00,,---,0.00,VWS V13.00,2013-03-18 12:59:00,
2013-03-18 05:04:00,32.2,15.2,29.77,NW,315,0.0,0.0,49,0.00,,---,0.00,VWS V13.00,2013-03-18 13:04:00,
2013-03-18 05:09:00,32.2,15.2,29.77,NNW,330,0.0,0.0,49,0.00,,---,0.00,VWS V13.00,2013-03-18 13:09:00,
2013-03-18 05:14:00,32.2,15.2,29.77,WNW,284,0.0,0.0,49,0.00,,---,0.00,VWS V13.00,2013-03-18 13:14:00,
2013-03-18 05:19:00,32.0,15.0,29.77,NNW,348,0.0,0.0,49,0.00,,---,0.00,VWS V13.00,2013-03-18 13:19:00,
2013-03-18 05:24:00,32.0,15.0,29.77,NW,306,0.0,0.0,49,0.00,,---,0.00,VWS V13.00,2013-03-18 13:24:00,
2013-03-18 05:29:00,32.2,15.2,29.77,WNW,283,0.0,0.0,49,0.00,,---,0.00,VWS V13.00,2013-03-18 13:29:00,
2013-03-18 05:34:00,32.4,14.9,29.77,NNW,328,0.0,0.0,48,0.00,,---,0.00,VWS V13.00,2013-03-18 13:34:00,
2013-03-18 05:39:00,32.2,15.2,29.77,WSW,241,0.0,0.0,49,0.00,,---,0.00,VWS V13.00,2013-03-18 13:39:00,
2013-03-18 05:44:00,32.2,15.2,29.77,NW,320,0.0,0.0,49,0.00,,---,0.00,VWS V13.00,2013-03-18 13:44:00,
2013-03-18 05:49:00,32.2,14.7,29.77,WSW,240,0.0,0.0,48,0.00,,---,0.00,VWS V13.00,2013-03-18 13:49:00,
2013-03-18 05:54:00,32.2,14.7,29.77,North,9,0.0,0.0,48,0.00,,---,0.00,VWS V13.00,2013-03-18 13:54:00,
2013-03-18 05:59:00,32.2,14.7,29.77,WSW,247,0.0,0.0,48,0.00,,---,0.00,VWS V13.00,2013-03-18 13:59:00,
2013-03-18 06:04:00,32.2,14.7,29.77,NW,305,0.0,0.0,48,0.00,,---,0.00,VWS V13.00,2013-03-18 14:04:00,
2013-03-18 06:09:00,32.2,14.7,29.77,West,280,0.0,0.0,48,0.00,,---,0.00,VWS V13.00,2013-03-18 14:09:00,
2013-03-18 06:14:00,32.0,15.0,29.77,NNW,348,0.0,9.6,49,0.00,,---,0.00,VWS V13.00,2013-03-18 14:14:00,
2013-03-18 06:19:00,32.0,15.0,29.77,NNW,337,0.0,9.6,49,0.00,,---,0.00,VWS V13.00,2013-03-18 14:19:00,
2013-03-18 06:24:00,31.8,14.9,29.77,NW,323,0.0,0.0,49,0.00,,---,0.00,VWS V13.00,2013-03-18 14:24:00,
2013-03-18 06:29:00,31.6,15.1,29.77,NW,312,0.0,15.0,50,0.00,,---,0.00,VWS V13.00,2013-03-18 14:29:00,
2013-03-18 06:34:00,31.6,15.1,29.77,WNW,296,0.0,15.0,50,0.00,,---,0.00,VWS V13.00,2013-03-18 14:34:00,
2013-03-18 06:39:00,31.6,15.1,29.77,NW,311,0.0,15.0,50,0.00,,---,0.00,VWS V13.00,2013-03-18 14:39:00,
2013-03-18 06:44:00,31.6,15.1,29.77,NNW,341,9.2,11.0,50,0.00,,---,0.00,VWS V13.00,2013-03-18 14:44:00,
2013-03-18 06:49:00,31.6,15.6,29.77,NE,39,0.0,11.0,51,0.00,,---,0.00,VWS V13.00,2013-03-18 14:49:00,
2013-03-18 06:54:00,31.8,15.8,29.77,NNW,339,0.0,11.9,51,0.00,,---,0.00,VWS V13.00,2013-03-18 14:54:00,
2013-03-18 06:59:00,31.8,15.8,29.77,NW,315,0.0,11.9,51,0.00,,---,0.00,VWS V13.00,2013-03-18 14:59:00,
2013-03-18 07:04:00,31.6,15.6,29.77,NNE,14,0.0,5.8,51,0.00,,---,0.00,VWS V13.00,2013-03-18 15:04:00,
2013-03-18 07:09:00,31.6,15.6,29.77,NNW,330,0.0,5.8,51,0.00,,---,0.00,VWS V13.00,2013-03-18 15:09:00,
2013-03-18 07:14:00,31.6,15.6,29.77,North,4,0.0,5.8,51,0.00,,---,0.00,VWS V13.00,2013-03-18 15:14:00,
2013-03-18 07:19:00,31.8,15.8,29.77,NNW,332,0.0,5.8,51,0.00,,---,0.00,VWS V13.00,2013-03-18 15:19:00,
2013-03-18 07:24:00,31.8,15.8,29.77,NNW,342,0.0,0.0,51,0.00,,---,0.00,VWS V13.00,2013-03-18 15:24:00,
2013-03-18 07:29:00,31.6,15.6,29.77,ENE,59,0.0,0.0,51,0.00,,---,0.00,VWS V13.00,2013-03-18 15:29:00,
2013-03-18 07:34:00,31.6,15.6,29.74,WNW,292,0.0,0.0,51,0.00,,---,0.00,VWS V13.00,2013-03-18 15:34:00,
2013-03-18 07:39:00,31.6,16.0,29.74,West,275,0.0,0.0,52,0.00,,---,0.00,VWS V13.00,2013-03-18 15:39:00,
2013-03-18 07:44:00,31.6,16.0,29.74,North,0,0.0,0.0,52,0.00,,---,0.00,VWS V13.00,2013-03-18 15:44:00,
2013-03-18 07:49:00,31.5,15.9,29.74,NW,323,0.0,0.0,52,0.00,,---,0.00,VWS V13.00,2013-03-18 15:49:00,
2013-03-18 07:54:00,31.5,15.9,29.74,WNW,294,0.0,0.0,52,0.00,,---,0.00,VWS V13.00,2013-03-18 15:54:00,
2013-03-18 07:59:00,31.3,15.3,29.74,North,353,0.0,0.0,51,0.00,,---,0.00,VWS V13.00,2013-03-18 15:59:00,
2013-03-18 08:04:00,31.1,15.1,29.74,WNW,301,0.0,0.0,51,0.00,,---,0.00,VWS V13.00,2013-03-18 16:04:00,
2013-03-18 08:09:00,30.9,14.5,29.74,West,267,4.5,8.3,50,0.00,,---,0.00,VWS V13.00,2013-03-18 16:09:00,
2013-03-18 08:14:00,31.1,13.7,29.74,WNW,299,0.0,8.3,48,0.00,,---,0.00,VWS V13.00,2013-03-18 16:14:00,
2013-03-18 08:19:00,30.9,13.1,29.74,NW,306,0.0,8.3,47,0.00,,---,0.00,VWS V13.00,2013-03-18 16:19:00,
2013-03-18 08:24:00,30.7,11.9,29.74,West,277,0.0,0.0,45,0.00,,---,0.00,VWS V13.00,2013-03-18 16:24:00,
2013-03-18 08:29:00,30.6,11.2,29.74,SE,137,0.0,3.6,44,0.00,,---,0.00,VWS V13.00,2013-03-18 16:29:00,
2013-03-18 08:34:00,30.4,10.1,29.74,SW,219,0.0,6.3,42,0.00,,---,0.00,VWS V13.00,2013-03-18 16:34:00,
2013-03-18 08:39:00,30.4,9.5,29.74,NW,323,0.0,6.3,41,0.00,,---,0.00,VWS V13.00,2013-03-18 16:39:00,
2013-03-18 08:44:00,30.6,9.7,29.74,North,353,0.0,0.0,41,0.00,,---,0.00,VWS V13.00,2013-03-18 16:44:00,
2013-03-18 08:49:00,30.4,9.5,29.74,West,264,0.0,0.0,41,0.00,,---,0.00,VWS V13.00,2013-03-18 16:49:00,
2013-03-18 08:54:00,30.2,9.4,29.74,WNW,298,0.0,0.0,41,0.00,,---,0.00,VWS V13.00,2013-03-18 16:54:00,
2013-03-18 08:59:00,30.2,9.9,29.74,NNW,344,0.0,0.0,42,0.00,,---,0.00,VWS V13.00,2013-03-18 16:59:00,
2013-03-18 09:04:00,30.0,9.7,29.74,West,278,0.0,0.0,42,0.00,,---,0.00,VWS V13.00,2013-03-18 17:04:00,
2013-03-18 09:09:00,30.0,9.2,29.74,North,7,4.5,8.7,41,0.00,,---,0.00,VWS V13.00,2013-03-18 17:09:00,
2013-03-18 09:14:00,30.2,9.9,29.74,North,7,0.0,8.7,42,0.00,,---,0.00,VWS V13.00,2013-03-18 17:14:00,
2013-03-18 09:19:00,30.7,9.8,29.74,North,353,0.0,8.7,41,0.00,,---,0.00,VWS V13.00,2013-03-18 17:19:00,
2013-03-18 09:24:00,31.1,10.2,29.74,North,2,4.5,4.5,41,0.00,,---,0.00,VWS V13.00,2013-03-18 17:24:00,
2013-03-18 09:29:00,31.5,10.5,29.74,SSE,160,0.0,9.6,41,0.00,,---,0.00,VWS V13.00,2013-03-18 17:29:00,
2013-03-18 09:34:00,32.2,11.1,29.74,NE,40,0.0,9.6,41,0.00,,---,0.00,VWS V13.00,2013-03-18 17:34:00,
2013-03-18 09:39:00,32.4,11.3,29.74,NNW,338,0.0,9.6,41,0.00,,---,0.00,VWS V13.00,2013-03-18 17:39:00,
2013-03-18 09:44:00,32.4,10.8,29.74,ENE,75,0.0,0.0,40,0.00,,---,0.00,VWS V13.00,2013-03-18 17:44:00,
2013-03-18 09:49:00,32.7,11.6,29.74,NNW,334,0.0,0.0,41,0.00,,---,0.00,VWS V13.00,2013-03-18 17:49:00,
2013-03-18 09:54:00,33.1,11.4,29.74,NNW,328,0.0,3.6,40,0.00,,---,0.00,VWS V13.00,2013-03-18 17:54:00,
2013-03-18 09:59:00,33.4,10.6,29.74,West,259,0.0,8.3,38,0.00,,---,0.00,VWS V13.00,2013-03-18 17:59:00,
2013-03-18 10:04:00,33.6,10.7,29.74,North,353,0.0,11.0,38,0.00,,---,0.00,VWS V13.00,2013-03-18 18:04:00,
2013-03-18 10:09:00,33.6,10.7,29.74,NNE,15,6.3,11.0,38,0.00,,---,0.00,VWS V13.00,2013-03-18 18:09:00,
2013-03-18 10:14:00,33.6,11.9,29.74,North,2,0.0,11.0,40,0.00,,---,0.00,VWS V13.00,2013-03-18 18:14:00,
2013-03-18 10:19:00,33.4,10.6,29.74,West,262,0.0,12.8,38,0.00,,---,0.00,VWS V13.00,2013-03-18 18:19:00,
2013-03-18 10:24:00,33.3,9.2,29.74,NNE,25,0.0,8.7,36,0.00,,---,0.00,VWS V13.00,2013-03-18 18:24:00,
2013-03-18 10:29:00,33.8,9.7,29.74,North,0,6.3,8.7,36,0.00,,---,0.00,VWS V13.00,2013-03-18 18:29:00,
2013-03-18 10:34:00,34.0,9.2,29.74,ENE,71,0.0,8.7,35,0.00,,---,0.00,VWS V13.00,2013-03-18 18:34:00,
2013-03-18 10:39:00,33.4,8.7,29.74,ENE,59,0.0,8.7,35,0.00,,---,0.00,VWS V13.00,2013-03-18 18:39:00,
2013-03-18 10:44:00,33.8,9.1,29.74,WNW,282,0.0,8.3,35,0.00,,---,0.00,VWS V13.00,2013-03-18 18:44:00,
2013-03-18 10:49:00,33.4,8.1,29.74,NW,312,0.0,8.3,34,0.00,,---,0.00,VWS V13.00,2013-03-18 18:49:00,
2013-03-18 10:54:00,33.3,7.9,29.74,NNE,23,3.1,9.2,34,0.00,,---,0.00,VWS V13.00,2013-03-18 18:54:00,
2013-03-18 10:59:00,33.8,9.1,29.74,ENE,71,4.0,9.2,35,0.00,,---,0.00,VWS V13.00,2013-03-18 18:59:00,
2013-03-18 11:04:00,33.8,8.4,29.74,North,357,13.2,13.2,34,0.00,,---,0.00,VWS V13.00,2013-03-18 19:04:00,
2013-03-18 11:09:00,34.3,8.9,29.74,ENE,78,0.0,13.2,34,0.00,,---,0.00,VWS V13.00,2013-03-18 19:09:00,
2013-03-18 11:14:00,34.5,9.7,29.74,WNW,290,0.0,13.2,35,0.00,,---,0.00,VWS V13.00,2013-03-18 19:14:00,
2013-03-18 11:19:00,34.9,10.6,29.74,NNE,18,0.0,13.2,36,0.00,,---,0.00,VWS V13.00,2013-03-18 19:19:00,
2013-03-18 11:24:00,34.5,9.7,29.74,NNE,14,9.6,9.6,35,0.00,,---,0.00,VWS V13.00,2013-03-18 19:24:00,
2013-03-18 11:29:00,33.4,9.4,29.74,East,85,0.0,9.6,36,0.00,,---,0.00,VWS V13.00,2013-03-18 19:29:00,
2013-03-18 11:34:00,32.7,9.3,29.74,ESE,106,0.0,10.1,37,0.00,,---,0.00,VWS V13.00,2013-03-18 19:34:00,
2013-03-18 11:39:00,32.5,9.8,29.74,NE,53,0.0,10.1,38,0.00,,---,0.00,VWS V13.00,2013-03-18 19:39:00,
2013-03-18 11:44:00,32.7,9.3,29.74,East,85,11.4,15.4,37,0.00,,---,0.00,VWS V13.00,2013-03-18 19:44:00,
2013-03-18 11:49:00,33.3,11.6,29.74,NNW,342,6.7,15.4,40,0.00,,---,0.00,VWS V13.00,2013-03-18 19:49:00,
2013-03-18 11:54:00,33.1,10.2,29.74,NNW,342,0.0,15.4,38,0.00,,---,0.00,VWS V13.00,2013-03-18 19:54:00,
2013-03-18 11:59:00,33.6,10.7,29.74,ENE,58,4.0,15.4,38,0.00,,---,0.00,VWS V13.00,2013-03-18 19:59:00,
2013-03-18 12:04:00,33.8,10.3,29.74,NNE,23,0.0,6.3,37,0.00,,---,0.00,VWS V13.00,2013-03-18 20:04:00,
2013-03-18 12:09:00,34.5,12.7,29.74,NW,318,0.0,12.8,40,0.00,,---,0.00,VWS V13.00,2013-03-18 20:09:00,
2013-03-18 12:14:00,34.5,11.5,29.74,East,93,0.0,15.4,38,0.00,,---,0.00,VWS V13.00,2013-03-18 20:14:00,
2013-03-18 12:19:00,34.0,10.5,29.74,NE,42,3.6,15.4,37,0.00,,---,0.00,VWS V13.00,2013-03-18 20:19:00,
2013-03-18 12:24:00,34.7,11.1,29.74,WNW,290,0.0,4.0,37,0.00,,---,0.00,VWS V13.00,2013-03-18 20:24:00,
2013-03-18 12:29:00,34.2,11.8,29.74,NE,40,0.0,11.0,39,0.00,,---,0.00,VWS V13.00,2013-03-18 20:29:00,
2013-03-18 12:34:00,34.5,12.7,29.74,SSW,209,0.0,11.0,40,0.00,,---,0.00,VWS V13.00,2013-03-18 20:34:00,
2013-03-18 12:39:00,34.7,12.9,29.74,West,274,0.0,15.4,40,0.00,,---,0.00,VWS V13.00,2013-03-18 20:39:00,
2013-03-18 12:44:00,34.9,11.9,29.74,NE,48,0.0,0.0,38,0.00,,---,0.00,VWS V13.00,2013-03-18 20:44:00,
2013-03-18 12:49:00,34.7,12.3,29.74,WNW,303,0.0,6.3,39,0.00,,---,0.00,VWS V13.00,2013-03-18 20:49:00,
2013-03-18 12:54:00,35.1,12.0,29.74,East,82,0.0,6.3,38,0.00,,---,0.00,VWS V13.00,2013-03-18 20:54:00,
2013-03-18 12:59:00,35.4,12.9,29.74,North,357,3.1,9.6,39,0.00,,---,0.00,VWS V13.00,2013-03-18 20:59:00,
2013-03-18 13:04:00,35.4,13.5,29.74,SW,228,0.0,8.3,40,0.00,,---,0.00,VWS V13.00,2013-03-18 21:04:00,
2013-03-18 13:09:00,36.3,13.8,29.74,NW,322,0.0,10.5,39,0.00,,---,0.00,VWS V13.00,2013-03-18 21:09:00,
2013-03-18 13:14:00,35.8,12.7,29.74,North,6,8.7,12.8,38,0.00,,---,0.00,VWS V13.00,2013-03-18 21:14:00,
2013-03-18 13:19:00,35.6,11.9,29.74,North,0,0.0,12.8,37,0.00,,---,0.00,VWS V13.00,2013-03-18 21:19:00,
2013-03-18 13:24:00,36.0,13.4,29.74,North,3,2.7,11.0,39,0.00,,---,0.00,VWS V13.00,2013-03-18 21:24:00,
2013-03-18 13:29:00,35.8,12.1,29.74,SSW,204,0.0,11.0,37,0.00,,---,0.00,VWS V13.00,2013-03-18 21:29:00,
2013-03-18 13:34:00,36.1,13.6,29.71,West,268,0.0,11.0,39,0.00,,---,0.00,VWS V13.00,2013-03-18 21:34:00,
2013-03-18 13:39:00,35.6,11.9,29.71,NNE,12,0.0,13.6,37,0.00,,---,0.00,VWS V13.00,2013-03-18 21:39:00,
2013-03-18 13:44:00,35.2,12.2,29.71,SSE,154,0.0,14.5,38,0.00,,---,0.00,VWS V13.00,2013-03-18 21:44:00,
2013-03-18 13:49:00,34.9,10.6,29.74,WNW,297,0.0,14.5,36,0.00,,---,0.00,VWS V13.00,2013-03-18 21:49:00,
2013-03-18 13:54:00,34.9,11.9,29.74,South,183,0.0,14.5,38,0.00,,---,0.00,VWS V13.00,2013-03-18 21:54:00,
2013-03-18 13:59:00,35.4,12.4,29.74,WNW,286,0.0,14.5,38,0.00,,---,0.00,VWS V13.00,2013-03-18 21:59:00,
2013-03-18 14:04:00,35.4,13.5,29.71,WNW,282,7.6,17.4,40,0.00,,---,0.00,VWS V13.00,2013-03-18 22:04:00,
2013-03-18 14:09:00,35.2,12.2,29.71,NNE,13,0.0,17.4,38,0.00,,---,0.00,VWS V13.00,2013-03-18 22:09:00,
2013-03-18 14:14:00,34.5,10.3,29.71,North,2,10.1,17.4,36,0.00,,---,0.00,VWS V13.00,2013-03-18 22:14:00,
2013-03-18 14:19:00,35.1,13.2,29.71,WNW,287,3.1,17.4,40,0.00,,---,0.00,VWS V13.00,2013-03-18 22:19:00,
2013-03-18 14:24:00,34.5,10.3,29.71,SE,144,0.0,15.0,36,0.00,,---,0.00,VWS V13.00,2013-03-18 22:24:00,
2013-03-18 14:29:00,35.2,11.6,29.71,ENE,69,0.0,15.0,37,0.00,,---,0.00,VWS V13.00,2013-03-18 22:29:00,
2013-03-18 14:34:00,34.5,9.7,29.71,NNW,345,0.0,15.0,35,0.00,,---,0.00,VWS V13.00,2013-03-18 22:34:00,
2013-03-18 14:39:00,34.5,10.9,29.71,East,90,0.0,15.0,37,0.00,,---,0.00,VWS V13.00,2013-03-18 22:39:00,
2013-03-18 14:44:00,34.7,9.9,29.71,East,86,0.0,6.3,35,0.00,,---,0.00,VWS V13.00,2013-03-18 22:44:00,
2013-03-18 14:49:00,33.8,9.1,29.71,East,95,3.1,13.2,35,0.00,,---,0.00,VWS V13.00,2013-03-18 22:49:00,
2013-03-18 14:54:00,34.0,9.9,29.71,NNE,31,9.2,13.2,36,0.00,,---,0.00,VWS V13.00,2013-03-18 22:54:00,
2013-03-18 14:59:00,34.3,9.5,29.71,ENE,70,9.6,13.2,35,0.00,,---,0.00,VWS V13.00,2013-03-18 22:59:00,
2013-03-18 15:04:00,34.5,9.7,29.71,East,88,0.0,15.9,35,0.00,,---,0.00,VWS V13.00,2013-03-18 23:04:00,
2013-03-18 15:09:00,34.9,10.0,29.71,WNW,286,0.0,15.9,35,0.00,,---,0.00,VWS V13.00,2013-03-18 23:09:00,
2013-03-18 15:14:00,34.5,9.7,29.71,SE,137,0.0,15.9,35,0.00,,---,0.00,VWS V13.00,2013-03-18 23:14:00,
2013-03-18 15:19:00,34.7,9.9,29.71,NE,55,0.0,15.9,35,0.00,,---,0.00,VWS V13.00,2013-03-18 23:19:00,
2013-03-18 15:24:00,35.4,12.4,29.71,North,357,0.0,6.3,38,0.00,,---,0.00,VWS V13.00,2013-03-18 23:24:00,
2013-03-18 15:29:00,36.3,11.3,29.71,NW,316,0.0,11.9,35,0.00,,---,0.00,VWS V13.00,2013-03-18 23:29:00,
2013-03-18 15:34:00,36.3,12.6,29.71,NNW,328,0.0,11.9,37,0.00,,---,0.00,VWS V13.00,2013-03-18 23:34:00,
2013-03-18 15:39:00,36.1,13.0,29.71,SSE,147,0.0,11.9,38,0.00,,---,0.00,VWS V13.00,2013-03-18 23:39:00,
2013-03-18 15:44:00,35.6,10.0,29.71,West,260,5.8,12.8,34,0.00,,---,0.00,VWS V13.00,2013-03-18 23:44:00,
2013-03-18 15:49:00,35.8,13.3,29.71,West,262,0.0,12.8,39,0.00,,---,0.00,VWS V13.00,2013-03-18 23:49:00,
2013-03-18 15:54:00,37.0,15.0,29.71,East,95,0.0,12.8,40,0.00,,---,0.00,VWS V13.00,2013-03-18 23:54:00,
2013-03-18 15:59:00,36.5,10.8,29.71,SW,217,0.0,12.8,34,0.00,,---,0.00,VWS V13.00,2013-03-18 23:59:00,
2013-03-18 16:04:00,36.0,10.3,29.71,ENE,74,5.8,5.8,34,0.00,,---,0.00,VWS V13.00,2013-03-19 00:04:00,
2013-03-18 16:09:00,35.1,9.5,29.71,NW,304,0.0,11.0,34,0.00,,---,0.00,VWS V13.00,2013-03-19 00:09:00,
2013-03-18 16:14:00,34.5,9.1,29.71,NNE,19,4.9,11.0,34,0.00,,---,0.00,VWS V13.00,2013-03-19 00:14:00,
2013-03-18 16:19:00,35.1,11.4,29.71,ENE,75,8.3,11.0,37,0.00,,---,0.00,VWS V13.00,2013-03-19 00:19:00,
2013-03-18 16:24:00,35.1,10.2,29.71,NE,48,0.0,5.8,35,0.00,,---,0.00,VWS V13.00,2013-03-19 00:24:00,
2013-03-18 16:29:00,35.1,10.2,29.71,North,8,0.0,7.6,35,0.00,,---,0.00,VWS V13.00,2013-03-19 00:29:00,
2013-03-18 16:34:00,35.1,10.2,29.71,NNE,30,0.0,7.6,35,0.00,,---,0.00,VWS V13.00,2013-03-19 00:34:00,
2013-03-18 16:39:00,35.4,11.8,29.71,SSW,212,0.0,10.1,37,0.00,,---,0.00,VWS V13.00,2013-03-19 00:39:00,
2013-03-18 16:44:00,35.8,11.4,29.71,SE,131,0.0,0.0,36,0.00,,---,0.00,VWS V13.00,2013-03-19 00:44:00,
2013-03-18 16:49:00,36.5,13.9,29.71,SW,234,0.0,0.0,39,0.00,,---,0.00,VWS V13.00,2013-03-19 00:49:00,
2013-03-18 16:54:00,36.9,14.2,29.71,North,353,0.0,0.0,39,0.00,,---,0.00,VWS V13.00,2013-03-19 00:54:00,
2013-03-18 16:59:00,35.1,10.8,29.71,NE,34,0.0,13.6,36,0.00,,---,0.00,VWS V13.00,2013-03-19 00:59:00,
2013-03-18 17:04:00,35.1,11.4,29.71,NNE,29,0.0,3.1,37,0.00,,---,0.00,VWS V13.00,2013-03-19 01:04:00,
2013-03-18 17:09:00,35.2,11.0,29.71,WSW,243,0.0,3.1,36,0.00,,---,0.00,VWS V13.00,2013-03-19 01:09:00,
2013-03-18 17:14:00,33.8,9.1,29.71,ENE,58,4.9,9.2,35,0.00,,---,0.00,VWS V13.00,2013-03-19 01:14:00,
2013-03-18 17:19:00,34.5,12.7,29.71,NNW,334,4.9,10.5,40,0.00,,---,0.00,VWS V13.00,2013-03-19 01:19:00,
2013-03-18 17:24:00,34.9,13.0,29.71,NW,317,0.0,0.0,40,0.00,,---,0.00,VWS V13.00,2013-03-19 01:24:00,
2013-03-18 17:29:00,34.9,12.4,29.71,NE,41,0.0,0.0,39,0.00,,---,0.00,VWS V13.00,2013-03-19 01:29:00,
2013-03-18 17:34:00,34.3,10.8,29.71,East,87,0.0,2.2,37,0.00,,---,0.00,VWS V13.00,2013-03-19 01:34:00,
2013-03-18 17:39:00,34.2,10.6,29.71,ENE,76,0.0,8.1,37,0.00,,---,0.00,VWS V13.00,2013-03-19 01:39:00,
2013-03-18 17:44:00,33.1,9.7,29.71,East,81,0.0,2.7,37,0.00,,---,0.00,VWS V13.00,2013-03-19 01:44:00,
2013-03-18 17:49:00,33.6,11.9,29.71,South,181,0.0,2.7,40,0.00,,---,0.00,VWS V13.00,2013-03-19 01:49:00,
2013-03-18 17:54:00,34.0,11.6,29.71,WNW,288,0.0,2.7,39,0.00,,---,0.00,VWS V13.00,2013-03-19 01:54:00,
2013-03-18 17:59:00,33.8,10.3,29.71,NNW,343,0.0,2.7,37,0.00,,---,0.00,VWS V13.00,2013-03-19 01:59:00,
2013-03-18 18:04:00,34.0,12.2,29.71,NNW,328,0.0,5.8,40,0.00,,---,0.00,VWS V13.00,2013-03-19 02:04:00,
2013-03-18 18:09:00,33.6,11.3,29.71,North,1,0.0,12.8,39,0.00,,---,0.00,VWS V13.00,2013-03-19 02:09:00,
2013-03-18 18:14:00,33.3,10.4,29.71,NE,44,0.0,12.8,38,0.00,,---,0.00,VWS V13.00,2013-03-19 02:14:00,
2013-03-18 18:19:00,33.3,11.0,29.71,ENE,69,0.0,12.8,39,0.00,,---,0.00,VWS V13.00,2013-03-19 02:19:00,
2013-03-18 18:24:00,33.3,11.6,29.71,NW,306,0.0,0.0,40,0.00,,---,0.00,VWS V13.00,2013-03-19 02:24:00,
2013-03-18 18:29:00,33.1,10.8,29.71,NW,321,0.0,0.0,39,0.00,,---,0.00,VWS V13.00,2013-03-19 02:29:00,
2013-03-18 18:34:00,33.1,11.4,29.68,West,266,0.0,0.0,40,0.00,,---,0.00,VWS V13.00,2013-03-19 02:34:00,
2013-03-18 18:39:00,32.9,10.7,29.68,West,266,0.0,0.0,39,0.00,,---,0.00,VWS V13.00,2013-03-19 02:39:00,
2013-03-18 18:44:00,32.7,11.1,29.68,West,276,0.0,0.0,40,0.00,,---,0.00,VWS V13.00,2013-03-19 02:44:00,
2013-03-18 18:49:00,32.2,10.6,29.68,ENE,66,0.0,0.0,40,0.00,,---,0.00,VWS V13.00,2013-03-19 02:49:00,
2013-03-18 18:54:00,32.2,10.0,29.68,ENE,74,0.0,0.0,39,0.00,,---,0.00,VWS V13.00,2013-03-19 02:54:00,
2013-03-18 18:59:00,32.2,10.6,29.68,NW,323,0.0,0.0,40,0.00,,---,0.00,VWS V13.00,2013-03-19 02:59:00,
2013-03-18 19:04:00,31.6,10.1,29.68,North,0,0.0,8.1,40,0.00,,---,0.00,VWS V13.00,2013-03-19 03:04:00,
2013-03-18 19:09:00,31.1,8.5,29.68,East,90,0.0,8.1,38,0.00,,---,0.00,VWS V13.00,2013-03-19 03:09:00,
2013-03-18 19:14:00,30.6,8.0,29.68,North,7,2.2,13.2,38,0.00,,---,0.00,VWS V13.00,2013-03-19 03:14:00,
2013-03-18 19:19:00,30.2,8.2,29.68,ESE,103,0.0,13.2,39,0.00,,---,0.00,VWS V13.00,2013-03-19 03:19:00,
2013-03-18 19:24:00,30.0,8.1,29.68,NW,305,0.0,6.3,39,0.00,,---,0.00,VWS V13.00,2013-03-19 03:24:00,
2013-03-18 19:29:00,30.2,8.2,29.68,NNE,25,0.0,8.1,39,0.00,,---,0.00,VWS V13.00,2013-03-19 03:29:00,
2013-03-18 19:34:00,29.8,7.9,29.68,ESE,120,0.0,8.1,39,0.00,,---,0.00,VWS V13.00,2013-03-19 03:34:00,
2013-03-18 19:39:00,29.7,7.8,29.68,ESE,114,0.0,10.1,39,0.00,,---,0.00,VWS V13.00,2013-03-19 03:39:00,
2013-03-18 19:44:00,29.8,7.9,29.68,ESE,120,0.0,0.0,39,0.00,,---,0.00,VWS V13.00,2013-03-19 03:44:00,
2013-03-18 19:49:00,29.8,8.5,29.68,NNW,343,0.0,7.2,40,0.00,,---,0.00,VWS V13.00,2013-03-19 03:49:00,
2013-03-18 19:54:00,29.8,8.5,29.68,NNW,348,5.8,7.2,40,0.00,,---,0.00,VWS V13.00,2013-03-19 03:54:00,
2013-03-18 19:59:00,29.7,8.3,29.68,NNW,336,0.0,7.2,40,0.00,,---,0.00,VWS V13.00,2013-03-19 03:59:00,
2013-03-18 20:00:00,29.7,8.3,29.68,North,357,0.0,7.2,40,0.00,,---,0.00,VWS V13.00,2013-03-19 04:00:00,
2013-03-18 20:05:00,29.7,8.3,29.68,ENE,67,0.0,0.0,40,0.00,,---,0.00,VWS V13.00,2013-03-19 04:05:00,
2013-03-18 20:10:00,29.5,7.6,29.68,WNW,300,0.0,0.0,39,0.00,,---,0.00,VWS V13.00,2013-03-19 04:10:00,
2013-03-18 20:15:00,29.3,7.4,29.68,NNW,328,4.9,8.3,39,0.00,,---,0.00,VWS V13.00,2013-03-19 04:15:00,
2013-03-18 20:20:00,29.1,7.8,29.68,WNW,296,0.0,0.0,40,0.00,,---,0.00,VWS V13.00,2013-03-19 04:20:00,
2013-03-18 20:25:00,29.1,7.8,29.68,NW,322,0.0,0.0,40,0.00,,---,0.00,VWS V13.00,2013-03-19 04:25:00,
2013-03-18 20:30:00,29.1,7.8,29.68,East,98,0.0,0.0,40,0.00,,---,0.00,VWS V13.00,2013-03-19 04:30:00,
2013-03-18 20:35:00,29.1,7.8,29.68,North,1,0.0,8.1,40,0.00,,---,0.00,VWS V13.00,2013-03-19 04:35:00,
2013-03-18 20:40:00,28.8,8.0,29.68,ENE,69,0.0,4.0,41,0.00,,---,0.00,VWS V13.00,2013-03-19 04:40:00,
2013-03-18 20:45:00,28.8,8.0,29.68,NNW,337,0.0,4.0,41,0.00,,---,0.00,VWS V13.00,2013-03-19 04:45:00,
2013-03-18 20:50:00,28.6,7.9,29.68,SE,128,0.0,4.0,41,0.00,,---,0.00,VWS V13.00,2013-03-19 04:50:00,
2013-03-18 20:55:00,28.6,7.9,29.68,SSE,153,0.0,4.0,41,0.00,,---,0.00,VWS V13.00,2013-03-19 04:55:00,
2013-03-18 21:00:00,28.6,7.9,29.68,NNE,25,0.0,0.0,41,0.00,,---,0.00,VWS V13.00,2013-03-19 05:00:00,
2013-03-18 21:05:00,28.6,7.9,29.68,WSW,254,0.0,0.0,41,0.00,,---,0.00,VWS V13.00,2013-03-19 05:05:00,
2013-03-18 21:10:00,28.8,8.0,29.68,NW,308,0.0,0.0,41,0.00,,---,0.00,VWS V13.00,2013-03-19 05:10:00,
2013-03-18 21:15:00,28.8,8.0,29.68,NW,307,0.0,0.0,41,0.00,,---,0.00,VWS V13.00,2013-03-19 05:15:00,
2013-03-18 21:20:00,28.6,7.9,29.68,NW,317,0.0,0.0,41,0.00,,---,0.00,VWS V13.00,2013-03-19 05:20:00,
2013-03-18 21:25:00,28.6,7.9,29.68,WNW,290,0.0,0.0,41,0.00,,---,0.00,VWS V13.00,2013-03-19 05:25:00,
2013-03-18 21:30:00,28.6,7.9,29.68,SW,234,0.0,0.0,41,0.00,,---,0.00,VWS V13.00,2013-03-19 05:30:00,
2013-03-18 21:35:00,28.4,7.7,29.68,SW,234,0.0,0.0,41,0.00,,---,0.00,VWS V13.00,2013-03-19 05:35:00,
2013-03-18 21:40:00,28.4,7.7,29.68,South,184,0.0,0.0,41,0.00,,---,0.00,VWS V13.00,2013-03-19 05:40:00,
2013-03-18 21:45:00,28.0,7.4,29.68,SSW,200,0.0,0.0,41,0.00,,---,0.00,VWS V13.00,2013-03-19 05:45:00,
2013-03-18 21:50:00,28.0,7.4,29.68,NW,307,0.0,0.0,41,0.00,,---,0.00,VWS V13.00,2013-03-19 05:50:00,
2013-03-18 21:55:00,27.3,6.7,29.68,ENE,65,0.0,0.0,41,0.00,,---,0.00,VWS V13.00,2013-03-19 05:55:00,
2013-03-18 22:00:00,27.1,6.6,29.68,SW,231,0.0,0.0,41,0.00,,---,0.00,VWS V13.00,2013-03-19 06:00:00,
2013-03-18 22:05:00,27.3,6.7,29.68,ESE,119,0.0,0.0,41,0.00,,---,0.00,VWS V13.00,2013-03-19 06:05:00,
2013-03-18 22:10:00,27.1,6.6,29.68,South,180,0.0,0.0,41,0.00,,---,0.00,VWS V13.00,2013-03-19 06:10:00,
2013-03-18 22:15:00,27.1,6.6,29.68,WNW,286,0.0,0.0,41,0.00,,---,0.00,VWS V13.00,2013-03-19 06:15:00,
2013-03-18 22:20:00,27.3,6.7,29.68,SSE,163,0.0,0.0,41,0.00,,---,0.00,VWS V13.00,2013-03-19 06:20:00,
2013-03-18 22:25:00,27.1,6.6,29.68,ENE,74,0.0,0.0,41,0.00,,---,0.00,VWS V13.00,2013-03-19 06:25:00,
2013-03-18 22:30:00,27.1,6.6,29.68,South,173,0.0,0.0,41,0.00,,---,0.00,VWS V13.00,2013-03-19 06:30:00,
2013-03-18 22:35:00,27.1,6.6,29.68,SW,217,0.0,0.0,41,0.00,,---,0.00,VWS V13.00,2013-03-19 06:35:00,
2013-03-18 22:40:00,26.8,6.2,29.68,SW,217,0.0,0.0,41,0.00,,---,0.00,VWS V13.00,2013-03-19 06:40:00,
2013-03-18 22:45:00,26.6,6.6,29.68,ESE,117,0.0,0.0,42,0.00,,---,0.00,VWS V13.00,2013-03-19 06:45:00,
2013-03-18 22:50:00,26.6,6.6,29.68,SSE,164,0.0,0.0,42,0.00,,---,0.00,VWS V13.00,2013-03-19 06:50:00,
2013-03-18 22:55:00,26.6,6.6,29.68,SE,129,0.0,0.0,42,0.00,,---,0.00,VWS V13.00,2013-03-19 06:55:00,
2013-03-18 23:00:00,26.1,6.1,29.68,SSW,196,0.0,0.0,42,0.00,,---,0.00,VWS V13.00,2013-03-19 07:00:00,
2013-03-18 23:05:00,26.1,6.1,29.68,South,170,0.0,0.0,42,0.00,,---,0.00,VWS V13.00,2013-03-19 07:05:00,
2013-03-18 23:10:00,26.2,6.3,29.68,SSW,203,0.0,0.0,42,0.00,,---,0.00,VWS V13.00,2013-03-19 07:10:00,
2013-03-18 23:15:00,26.1,6.1,29.68,ENE,65,0.0,0.0,42,0.00,,---,0.00,VWS V13.00,2013-03-19 07:15:00,
2013-03-18 23:20:00,26.2,6.3,29.68,North,357,3.6,3.6,42,0.00,,---,0.00,VWS V13.00,2013-03-19 07:20:00,
2013-03-18 23:25:00,26.2,6.3,29.68,SW,232,0.0,3.6,42,0.00,,---,0.00,VWS V13.00,2013-03-19 07:25:00,
2013-03-18 23:30:00,26.2,6.3,29.68,SW,228,0.0,3.6,42,0.00,,---,0.00,VWS V13.00,2013-03-19 07:30:00,
2013-03-18 23:35:00,26.2,6.3,29.68,SW,229,0.0,3.6,42,0.00,,---,0.00,VWS V13.00,2013-03-19 07:35:00,
2013-03-18 23:40:00,26.1,6.1,29.68,NW,322,0.0,0.0,42,0.00,,---,0.00,VWS V13.00,2013-03-19 07:40:00,
2013-03-18 23:45:00,25.9,6.5,29.68,NNW,342,0.0,0.0,43,0.00,,---,0.00,VWS V13.00,2013-03-19 07:45:00,
2013-03-18 23:50:00,26.1,6.6,29.68,NNW,327,0.0,0.0,43,0.00,,---,0.00,VWS V13.00,2013-03-19 07:50:00,
2013-03-18 23:55:00,26.4,7.0,29.68,WNW,289,0.0,0.0,43,0.00,,---,0.00,VWS V13.00,2013-03-19 07:55:00,